Year,Month,Day,Hour,Minute,Value (Times are PST for temperature in C)
2006,08,13,00,00,14.10
2006,08,13,00,01,14.10
2006,08,13,00,02,14.10
2006,08,13,00,03,14.00
2006,08,13,00,04,14.00
2006,08,13,00,05,14.00
2006,08,13,00,06,14.00
2006,08,13,00,07,14.00
2006,08,13,00,08,14.00
2006,08,13,00,09,14.00
2006,08,13,00,10,14.00
2006,08,13,00,11,14.00
2006,08,13,00,12,14.00
2006,08,13,00,13,14.00
2006,08,13,00,14,13.90
2006,08,13,00,15,13.90
2006,08,13,00,16,13.90
2006,08,13,00,17,13.90
2006,08,13,00,18,13.80
2006,08,13,00,19,13.80
2006,08,13,00,20,13.80
2006,08,13,00,21,13.70
2006,08,13,00,22,13.70
2006,08,13,00,23,13.70
2006,08,13,00,24,13.60
2006,08,13,00,25,13.60
2006,08,13,00,26,13.50
2006,08,13,00,27,13.50
2006,08,13,00,28,13.40
2006,08,13,00,29,13.40
2006,08,13,00,30,13.30
2006,08,13,00,31,13.30
2006,08,13,00,32,13.30
2006,08,13,00,33,13.30
2006,08,13,00,34,13.20
2006,08,13,00,35,13.20
2006,08,13,00,36,13.20
2006,08,13,00,37,13.20
2006,08,13,00,38,13.20
2006,08,13,00,39,13.20
2006,08,13,00,40,13.20
2006,08,13,00,41,13.20
2006,08,13,00,42,13.20
2006,08,13,00,43,13.20
2006,08,13,00,44,13.20
2006,08,13,00,45,13.20
2006,08,13,00,46,13.10
2006,08,13,00,47,13.10
2006,08,13,00,48,13.10
2006,08,13,00,49,13.10
2006,08,13,00,50,13.10
2006,08,13,00,51,13.10
2006,08,13,00,52,13.10
2006,08,13,00,53,13.10
2006,08,13,00,54,13.10
2006,08,13,00,55,13.10
2006,08,13,00,56,13.10
2006,08,13,00,57,13.10
2006,08,13,00,58,13.10
2006,08,13,00,59,13.10
2006,08,13,01,00,13.10
2006,08,13,01,01,13.10
2006,08,13,01,02,13.10
2006,08,13,01,03,13.10
2006,08,13,01,04,13.10
2006,08,13,01,05,13.10
2006,08,13,01,06,13.10
2006,08,13,01,07,13.10
2006,08,13,01,08,13.10
2006,08,13,01,09,13.10
2006,08,13,01,10,13.20
2006,08,13,01,11,13.20
2006,08,13,01,12,13.20
2006,08,13,01,13,13.20
2006,08,13,01,14,13.20
2006,08,13,01,15,13.30
2006,08,13,01,16,13.30
2006,08,13,01,17,13.30
2006,08,13,01,18,13.30
2006,08,13,01,19,13.30
2006,08,13,01,20,13.30
2006,08,13,01,21,13.30
2006,08,13,01,22,13.30
2006,08,13,01,23,13.30
2006,08,13,01,24,13.30
2006,08,13,01,25,13.30
2006,08,13,01,26,13.30
2006,08,13,01,27,13.30
2006,08,13,01,28,13.30
2006,08,13,01,29,13.20
2006,08,13,01,30,13.20
2006,08,13,01,31,13.20
2006,08,13,01,32,13.10
2006,08,13,01,33,13.10
2006,08,13,01,34,13.00
2006,08,13,01,35,13.00
2006,08,13,01,36,13.00
2006,08,13,01,37,12.90
2006,08,13,01,38,12.90
2006,08,13,01,39,12.90
2006,08,13,01,40,12.80
2006,08,13,01,41,12.80
2006,08,13,01,42,12.80
2006,08,13,01,43,12.80
2006,08,13,01,44,12.80
2006,08,13,01,45,12.80
2006,08,13,01,46,12.80
2006,08,13,01,47,12.80
2006,08,13,01,48,12.80
2006,08,13,01,49,12.80
2006,08,13,01,50,12.80
2006,08,13,01,51,12.70
2006,08,13,01,52,12.70
2006,08,13,01,53,12.70
2006,08,13,01,54,12.70
2006,08,13,01,55,12.70
2006,08,13,01,56,12.60
2006,08,13,01,57,12.60
2006,08,13,01,58,12.60
2006,08,13,01,59,12.60
2006,08,13,02,00,12.60
2006,08,13,02,01,12.60
2006,08,13,02,02,12.60
2006,08,13,02,03,12.60
2006,08,13,02,04,12.60
2006,08,13,02,05,12.70
2006,08,13,02,06,12.70
2006,08,13,02,07,12.70
2006,08,13,02,08,12.70
2006,08,13,02,09,12.70
2006,08,13,02,10,12.70
2006,08,13,02,11,12.80
2006,08,13,02,12,12.80
2006,08,13,02,13,12.80
2006,08,13,02,14,12.80
2006,08,13,02,15,12.80
2006,08,13,02,16,12.80
2006,08,13,02,17,12.80
2006,08,13,02,18,12.80
2006,08,13,02,19,12.80
2006,08,13,02,20,12.80
2006,08,13,02,21,12.80
2006,08,13,02,22,12.80
2006,08,13,02,23,12.80
2006,08,13,02,24,12.80
2006,08,13,02,25,12.80
2006,08,13,02,26,12.80
2006,08,13,02,27,12.80
2006,08,13,02,28,12.80
2006,08,13,02,29,12.80
2006,08,13,02,30,12.80
2006,08,13,02,31,12.80
2006,08,13,02,32,12.80
2006,08,13,02,33,12.80
2006,08,13,02,34,12.80
2006,08,13,02,35,12.80
2006,08,13,02,36,12.80
2006,08,13,02,37,12.80
2006,08,13,02,38,12.80
2006,08,13,02,39,12.80
2006,08,13,02,40,12.80
2006,08,13,02,41,12.80
2006,08,13,02,42,12.80
2006,08,13,02,43,12.80
2006,08,13,02,44,12.80
2006,08,13,02,45,12.80
2006,08,13,02,46,12.80
2006,08,13,02,47,12.80
2006,08,13,02,48,12.70
2006,08,13,02,49,12.70
2006,08,13,02,50,12.70
2006,08,13,02,51,12.70
2006,08,13,02,52,12.70
2006,08,13,02,53,12.70
2006,08,13,02,54,12.70
2006,08,13,02,55,12.70
2006,08,13,02,56,12.70
2006,08,13,02,57,12.70
2006,08,13,02,58,12.60
2006,08,13,02,59,12.60
2006,08,13,03,00,12.60
2006,08,13,03,01,12.60
2006,08,13,03,02,12.60
2006,08,13,03,03,12.60
2006,08,13,03,04,12.50
2006,08,13,03,05,12.50
2006,08,13,03,06,12.50
2006,08,13,03,07,12.50
2006,08,13,03,08,12.50
2006,08,13,03,09,12.40
2006,08,13,03,10,12.40
2006,08,13,03,11,12.30
2006,08,13,03,12,12.30
2006,08,13,03,13,12.30
2006,08,13,03,14,12.30
2006,08,13,03,15,12.30
2006,08,13,03,16,12.20
2006,08,13,03,17,12.20
2006,08,13,03,18,12.20
2006,08,13,03,19,12.10
2006,08,13,03,20,12.10
2006,08,13,03,21,12.10
2006,08,13,03,22,12.00
2006,08,13,03,23,12.00
2006,08,13,03,24,11.90
2006,08,13,03,25,11.90
2006,08,13,03,26,11.90
2006,08,13,03,27,11.80
2006,08,13,03,28,11.80
2006,08,13,03,29,11.80
2006,08,13,03,30,11.80
2006,08,13,03,31,11.80
2006,08,13,03,32,11.80
2006,08,13,03,33,11.80
2006,08,13,03,34,11.80
2006,08,13,03,35,11.80
2006,08,13,03,36,11.80
2006,08,13,03,37,11.80
2006,08,13,03,38,11.80
2006,08,13,03,39,11.80
2006,08,13,03,40,11.70
2006,08,13,03,41,11.70
2006,08,13,03,42,11.70
2006,08,13,03,43,11.60
2006,08,13,03,44,11.60
2006,08,13,03,45,11.60
2006,08,13,03,46,11.60
2006,08,13,03,47,11.60
2006,08,13,03,48,11.60
2006,08,13,03,49,11.50
2006,08,13,03,50,11.40
2006,08,13,03,51,11.40
2006,08,13,03,52,11.40
2006,08,13,03,53,11.40
2006,08,13,03,54,11.40
2006,08,13,03,55,11.40
2006,08,13,03,56,11.40
2006,08,13,03,57,11.40
2006,08,13,03,58,11.40
2006,08,13,03,59,11.40
2006,08,13,04,00,11.40
2006,08,13,04,01,11.40
2006,08,13,04,02,11.40
2006,08,13,04,03,11.40
2006,08,13,04,04,11.40
2006,08,13,04,05,11.40
2006,08,13,04,06,11.40
2006,08,13,04,07,11.40
2006,08,13,04,08,11.40
2006,08,13,04,09,11.40
2006,08,13,04,10,11.40
2006,08,13,04,11,11.40
2006,08,13,04,12,11.40
2006,08,13,04,13,11.40
2006,08,13,04,14,11.40
2006,08,13,04,15,11.40
2006,08,13,04,16,11.40
2006,08,13,04,17,11.30
2006,08,13,04,18,11.30
2006,08,13,04,19,11.30
2006,08,13,04,20,11.30
2006,08,13,04,21,11.30
2006,08,13,04,22,11.30
2006,08,13,04,23,11.30
2006,08,13,04,24,11.30
2006,08,13,04,25,11.40
2006,08,13,04,26,11.40
2006,08,13,04,27,11.40
2006,08,13,04,28,11.40
2006,08,13,04,29,11.40
2006,08,13,04,30,11.40
2006,08,13,04,31,11.40
2006,08,13,04,32,11.50
2006,08,13,04,33,11.60
2006,08,13,04,34,11.60
2006,08,13,04,35,11.60
2006,08,13,04,36,11.60
2006,08,13,04,37,11.60
2006,08,13,04,38,11.60
2006,08,13,04,39,11.60
2006,08,13,04,40,11.60
2006,08,13,04,41,11.60
2006,08,13,04,42,11.60
2006,08,13,04,43,11.60
2006,08,13,04,44,11.60
2006,08,13,04,45,11.60
2006,08,13,04,46,11.60
2006,08,13,04,47,11.60
2006,08,13,04,48,11.60
2006,08,13,04,49,11.60
2006,08,13,04,50,11.60
2006,08,13,04,51,11.60
2006,08,13,04,52,11.60
2006,08,13,04,53,11.70
2006,08,13,04,54,11.70
2006,08,13,04,55,11.70
2006,08,13,04,56,11.80
2006,08,13,04,57,11.80
2006,08,13,04,58,11.80
2006,08,13,04,59,11.80
2006,08,13,05,00,11.80
2006,08,13,05,01,11.80
2006,08,13,05,02,11.80
2006,08,13,05,03,11.80
2006,08,13,05,04,11.80
2006,08,13,05,05,11.80
2006,08,13,05,06,11.80
2006,08,13,05,07,11.80
2006,08,13,05,08,11.80
2006,08,13,05,09,11.80
2006,08,13,05,10,11.80
2006,08,13,05,11,11.80
2006,08,13,05,12,11.80
2006,08,13,05,13,11.80
2006,08,13,05,14,11.80
2006,08,13,05,15,11.80
2006,08,13,05,16,11.80
2006,08,13,05,17,11.80
2006,08,13,05,18,11.80
2006,08,13,05,19,11.80
2006,08,13,05,20,11.80
2006,08,13,05,21,11.80
2006,08,13,05,22,11.90
2006,08,13,05,23,11.90
2006,08,13,05,24,11.90
2006,08,13,05,25,12.00
2006,08,13,05,26,12.00
2006,08,13,05,27,12.00
2006,08,13,05,28,12.00
2006,08,13,05,29,12.00
2006,08,13,05,30,12.10
2006,08,13,05,31,12.10
2006,08,13,05,32,12.10
2006,08,13,05,33,12.20
2006,08,13,05,34,12.20
2006,08,13,05,35,12.20
2006,08,13,05,36,12.30
2006,08,13,05,37,12.30
2006,08,13,05,38,12.30
2006,08,13,05,39,12.30
2006,08,13,05,40,12.30
2006,08,13,05,41,12.30
2006,08,13,05,42,12.40
2006,08,13,05,43,12.40
2006,08,13,05,44,12.40
2006,08,13,05,45,12.40
2006,08,13,05,46,12.40
2006,08,13,05,47,12.40
2006,08,13,05,48,12.50
2006,08,13,05,49,12.50
2006,08,13,05,50,12.50
2006,08,13,05,51,12.50
2006,08,13,05,52,12.50
2006,08,13,05,53,12.50
2006,08,13,05,54,12.40
2006,08,13,05,55,12.40
2006,08,13,05,56,12.40
2006,08,13,05,57,12.30
2006,08,13,05,58,12.30
2006,08,13,05,59,12.30
2006,08,13,06,00,12.30
2006,08,13,06,01,12.30
2006,08,13,06,02,12.20
2006,08,13,06,03,12.20
2006,08,13,06,04,12.20
2006,08,13,06,05,12.20
2006,08,13,06,06,12.10
2006,08,13,06,07,12.10
2006,08,13,06,08,12.10
2006,08,13,06,09,12.10
2006,08,13,06,10,12.10
2006,08,13,06,11,12.10
2006,08,13,06,12,12.00
2006,08,13,06,13,12.00
2006,08,13,06,14,12.00
2006,08,13,06,15,12.00
2006,08,13,06,16,12.00
2006,08,13,06,17,12.00
2006,08,13,06,18,11.90
2006,08,13,06,19,11.90
2006,08,13,06,20,11.90
2006,08,13,06,21,11.90
2006,08,13,06,22,11.90
2006,08,13,06,23,11.90
2006,08,13,06,24,11.90
2006,08,13,06,25,11.90
2006,08,13,06,26,11.90
2006,08,13,06,27,11.90
2006,08,13,06,28,12.00
2006,08,13,06,29,12.00
2006,08,13,06,30,12.00
2006,08,13,06,31,12.00
2006,08,13,06,32,12.00
2006,08,13,06,33,12.00
2006,08,13,06,34,12.00
2006,08,13,06,35,12.00
2006,08,13,06,36,12.00
2006,08,13,06,37,12.00
2006,08,13,06,38,12.00
2006,08,13,06,39,12.00
2006,08,13,06,40,12.00
2006,08,13,06,41,12.00
2006,08,13,06,42,12.10
2006,08,13,06,43,12.10
2006,08,13,06,44,12.10
2006,08,13,06,45,12.20
2006,08,13,06,46,12.20
2006,08,13,06,47,12.20
2006,08,13,06,48,12.30
2006,08,13,06,49,12.30
2006,08,13,06,50,12.30
2006,08,13,06,51,12.40
2006,08,13,06,52,12.40
2006,08,13,06,53,12.50
2006,08,13,06,54,12.50
2006,08,13,06,55,12.60
2006,08,13,06,56,12.60
2006,08,13,06,57,12.60
2006,08,13,06,58,12.70
2006,08,13,06,59,12.70
2006,08,13,07,00,12.80
2006,08,13,07,01,12.80
2006,08,13,07,02,12.80
2006,08,13,07,03,12.80
2006,08,13,07,04,12.80
2006,08,13,07,05,12.90
2006,08,13,07,06,12.90
2006,08,13,07,07,12.90
2006,08,13,07,08,13.00
2006,08,13,07,09,13.00
2006,08,13,07,10,13.10
2006,08,13,07,11,13.10
2006,08,13,07,12,13.10
2006,08,13,07,13,13.10
2006,08,13,07,14,13.20
2006,08,13,07,15,13.20
2006,08,13,07,16,13.30
2006,08,13,07,17,13.30
2006,08,13,07,18,13.40
2006,08,13,07,19,13.50
2006,08,13,07,20,13.50
2006,08,13,07,21,13.60
2006,08,13,07,22,13.70
2006,08,13,07,23,13.80
2006,08,13,07,24,13.90
2006,08,13,07,25,14.00
2006,08,13,07,26,14.10
2006,08,13,07,27,14.20
2006,08,13,07,28,14.30
2006,08,13,07,29,14.40
2006,08,13,07,30,14.40
2006,08,13,07,31,14.40
2006,08,13,07,32,14.40
2006,08,13,07,33,14.40
2006,08,13,07,34,14.40
2006,08,13,07,35,14.50
2006,08,13,07,36,14.50
2006,08,13,07,37,14.50
2006,08,13,07,38,14.60
2006,08,13,07,39,14.60
2006,08,13,07,40,14.60
2006,08,13,07,41,14.60
2006,08,13,07,42,14.60
2006,08,13,07,43,14.60
2006,08,13,07,44,14.70
2006,08,13,07,45,14.70
2006,08,13,07,46,14.80
2006,08,13,07,47,14.80
2006,08,13,07,48,14.90
2006,08,13,07,49,14.90
2006,08,13,07,50,15.00
2006,08,13,07,51,15.10
2006,08,13,07,52,15.20
2006,08,13,07,53,15.20
2006,08,13,07,54,15.30
2006,08,13,07,55,15.40
2006,08,13,07,56,15.50
2006,08,13,07,57,15.60
2006,08,13,07,58,15.70
2006,08,13,07,59,15.70
2006,08,13,08,00,15.80
2006,08,13,08,01,15.80
2006,08,13,08,02,15.80
2006,08,13,08,03,15.90
2006,08,13,08,04,15.90
2006,08,13,08,05,15.90
2006,08,13,08,06,15.90
2006,08,13,08,07,16.00
2006,08,13,08,08,16.10
2006,08,13,08,09,16.10
2006,08,13,08,10,16.10
2006,08,13,08,11,16.10
2006,08,13,08,12,16.20
2006,08,13,08,13,16.30
2006,08,13,08,14,16.30
2006,08,13,08,15,16.40
2006,08,13,08,16,16.40
2006,08,13,08,17,16.40
2006,08,13,08,18,16.40
2006,08,13,08,19,16.40
2006,08,13,08,20,16.40
2006,08,13,08,21,16.40
2006,08,13,08,22,16.50
2006,08,13,08,23,16.60
2006,08,13,08,24,16.60
2006,08,13,08,25,16.60
2006,08,13,08,26,16.60
2006,08,13,08,27,16.60
2006,08,13,08,28,16.60
2006,08,13,08,29,16.60
2006,08,13,08,30,16.60
2006,08,13,08,31,16.60
2006,08,13,08,32,16.50
2006,08,13,08,33,16.40
2006,08,13,08,34,16.40
2006,08,13,08,35,16.40
2006,08,13,08,36,16.40
2006,08,13,08,37,16.50
2006,08,13,08,38,16.60
2006,08,13,08,39,16.60
2006,08,13,08,40,16.50
2006,08,13,08,41,16.40
2006,08,13,08,42,16.40
2006,08,13,08,43,16.60
2006,08,13,08,44,16.60
2006,08,13,08,45,16.70
2006,08,13,08,46,16.80
2006,08,13,08,47,16.90
2006,08,13,08,48,16.90
2006,08,13,08,49,17.00
2006,08,13,08,50,17.00
2006,08,13,08,51,17.10
2006,08,13,08,52,17.10
2006,08,13,08,53,17.00
2006,08,13,08,54,17.00
2006,08,13,08,55,17.00
2006,08,13,08,56,17.00
2006,08,13,08,57,17.00
2006,08,13,08,58,17.00
2006,08,13,08,59,17.10
2006,08,13,09,00,17.10
2006,08,13,09,01,17.20
2006,08,13,09,02,17.20
2006,08,13,09,03,17.30
2006,08,13,09,04,17.30
2006,08,13,09,05,17.30
2006,08,13,09,06,17.40
2006,08,13,09,07,17.40
2006,08,13,09,08,17.40
2006,08,13,09,09,17.40
2006,08,13,09,10,17.40
2006,08,13,09,11,17.40
2006,08,13,09,12,17.40
2006,08,13,09,13,17.50
2006,08,13,09,14,17.50
2006,08,13,09,15,17.60
2006,08,13,09,16,17.60
2006,08,13,09,17,17.70
2006,08,13,09,18,17.80
2006,08,13,09,19,17.90
2006,08,13,09,20,17.90
2006,08,13,09,21,17.90
2006,08,13,09,22,17.80
2006,08,13,09,23,17.80
2006,08,13,09,24,17.70
2006,08,13,09,25,17.60
2006,08,13,09,26,17.50
2006,08,13,09,27,17.40
2006,08,13,09,28,17.40
2006,08,13,09,29,17.30
2006,08,13,09,30,17.30
2006,08,13,09,31,17.30
2006,08,13,09,32,17.30
2006,08,13,09,33,17.20
2006,08,13,09,34,17.20
2006,08,13,09,35,17.20
2006,08,13,09,36,17.20
2006,08,13,09,37,17.30
2006,08,13,09,38,17.30
2006,08,13,09,39,17.30
2006,08,13,09,40,17.30
2006,08,13,09,41,17.30
2006,08,13,09,42,17.30
2006,08,13,09,43,17.30
2006,08,13,09,44,17.30
2006,08,13,09,45,17.30
2006,08,13,09,46,17.30
2006,08,13,09,47,17.30
2006,08,13,09,48,17.30
2006,08,13,09,49,17.30
2006,08,13,09,50,17.30
2006,08,13,09,51,17.30
2006,08,13,09,52,17.40
2006,08,13,09,53,17.50
2006,08,13,09,54,17.50
2006,08,13,09,55,17.50
2006,08,13,09,56,17.60
2006,08,13,09,57,17.70
2006,08,13,09,58,17.80
2006,08,13,09,59,17.80
2006,08,13,10,00,17.80
2006,08,13,10,01,17.80
2006,08,13,10,02,17.80
2006,08,13,10,03,17.70
2006,08,13,10,04,17.70
2006,08,13,10,05,17.70
2006,08,13,10,06,17.60
2006,08,13,10,07,17.70
2006,08,13,10,08,17.70
2006,08,13,10,09,17.80
2006,08,13,10,10,17.80
2006,08,13,10,11,17.80
2006,08,13,10,12,17.70
2006,08,13,10,13,17.70
2006,08,13,10,14,17.70
2006,08,13,10,15,17.70
2006,08,13,10,16,17.80
2006,08,13,10,17,17.90
2006,08,13,10,18,17.90
2006,08,13,10,19,17.80
2006,08,13,10,20,17.80
2006,08,13,10,21,17.70
2006,08,13,10,22,17.70
2006,08,13,10,23,17.60
2006,08,13,10,24,17.50
2006,08,13,10,25,17.50
2006,08,13,10,26,17.60
2006,08,13,10,27,17.70
2006,08,13,10,28,17.80
2006,08,13,10,29,17.90
2006,08,13,10,30,17.90
2006,08,13,10,31,17.90
2006,08,13,10,32,17.90
2006,08,13,10,33,17.90
2006,08,13,10,34,17.90
2006,08,13,10,35,17.90
2006,08,13,10,36,17.90
2006,08,13,10,37,17.90
2006,08,13,10,38,18.00
2006,08,13,10,39,18.10
2006,08,13,10,40,18.10
2006,08,13,10,41,18.10
2006,08,13,10,42,18.10
2006,08,13,10,43,18.10
2006,08,13,10,44,18.10
2006,08,13,10,45,18.10
2006,08,13,10,46,18.10
2006,08,13,10,47,18.20
2006,08,13,10,48,18.20
2006,08,13,10,49,18.20
2006,08,13,10,50,18.20
2006,08,13,10,51,18.20
2006,08,13,10,52,18.10
2006,08,13,10,53,18.10
2006,08,13,10,54,18.10
2006,08,13,10,55,18.00
2006,08,13,10,56,17.90
2006,08,13,10,57,17.90
2006,08,13,10,58,17.90
2006,08,13,10,59,17.90
2006,08,13,11,00,18.00
2006,08,13,11,01,18.10
2006,08,13,11,02,18.20
2006,08,13,11,03,18.30
2006,08,13,11,04,18.30
2006,08,13,11,05,18.40
2006,08,13,11,06,18.40
2006,08,13,11,07,18.50
2006,08,13,11,08,18.50
2006,08,13,11,09,18.50
2006,08,13,11,10,18.50
2006,08,13,11,11,18.60
2006,08,13,11,12,18.60
2006,08,13,11,13,18.70
2006,08,13,11,14,18.70
2006,08,13,11,15,18.90
2006,08,13,11,16,19.00
2006,08,13,11,17,19.10
2006,08,13,11,18,19.10
2006,08,13,11,19,19.10
2006,08,13,11,20,19.10
2006,08,13,11,21,19.10
2006,08,13,11,22,19.10
2006,08,13,11,23,19.00
2006,08,13,11,24,18.90
2006,08,13,11,25,19.00
2006,08,13,11,26,19.00
2006,08,13,11,27,18.90
2006,08,13,11,28,18.80
2006,08,13,11,29,18.70
2006,08,13,11,30,18.70
2006,08,13,11,31,18.60
2006,08,13,11,32,18.70
2006,08,13,11,33,18.80
2006,08,13,11,34,18.80
2006,08,13,11,35,18.80
2006,08,13,11,36,18.90
2006,08,13,11,37,18.90
2006,08,13,11,38,18.90
2006,08,13,11,39,18.80
2006,08,13,11,40,18.70
2006,08,13,11,41,18.70
2006,08,13,11,42,18.70
2006,08,13,11,43,18.60
2006,08,13,11,44,18.70
2006,08,13,11,45,18.70
2006,08,13,11,46,18.80
2006,08,13,11,47,18.80
2006,08,13,11,48,18.80
2006,08,13,11,49,18.90
2006,08,13,11,50,18.90
2006,08,13,11,51,18.90
2006,08,13,11,52,19.00
2006,08,13,11,53,19.10
2006,08,13,11,54,19.10
2006,08,13,11,55,19.10
2006,08,13,11,56,19.10
2006,08,13,11,57,19.10
2006,08,13,11,58,19.20
2006,08,13,11,59,19.20
2006,08,13,12,00,19.20
2006,08,13,12,01,19.30
2006,08,13,12,02,19.30
2006,08,13,12,03,19.20
2006,08,13,12,04,19.20
2006,08,13,12,05,19.10
2006,08,13,12,06,19.10
2006,08,13,12,07,19.20
2006,08,13,12,08,19.30
2006,08,13,12,09,19.30
2006,08,13,12,10,19.40
2006,08,13,12,11,19.40
2006,08,13,12,12,19.30
2006,08,13,12,13,19.30
2006,08,13,12,14,19.20
2006,08,13,12,15,19.20
2006,08,13,12,16,19.30
2006,08,13,12,17,19.30
2006,08,13,12,18,19.20
2006,08,13,12,19,19.10
2006,08,13,12,20,19.10
2006,08,13,12,21,19.10
2006,08,13,12,22,19.30
2006,08,13,12,23,19.30
2006,08,13,12,24,19.40
2006,08,13,12,25,19.40
2006,08,13,12,26,19.50
2006,08,13,12,27,19.50
2006,08,13,12,28,19.60
2006,08,13,12,29,19.50
2006,08,13,12,30,19.40
2006,08,13,12,31,19.40
2006,08,13,12,32,19.30
2006,08,13,12,33,19.20
2006,08,13,12,34,19.10
2006,08,13,12,35,19.10
2006,08,13,12,36,19.10
2006,08,13,12,37,19.10
2006,08,13,12,38,19.10
2006,08,13,12,39,19.20
2006,08,13,12,40,19.40
2006,08,13,12,41,19.50
2006,08,13,12,42,19.60
2006,08,13,12,43,19.70
2006,08,13,12,44,19.70
2006,08,13,12,45,19.70
2006,08,13,12,46,19.60
2006,08,13,12,47,19.70
2006,08,13,12,48,19.70
2006,08,13,12,49,19.60
2006,08,13,12,50,19.50
2006,08,13,12,51,19.40
2006,08,13,12,52,19.50
2006,08,13,12,53,19.50
2006,08,13,12,54,19.40
2006,08,13,12,55,19.40
2006,08,13,12,56,19.30
2006,08,13,12,57,19.20
2006,08,13,12,58,19.20
2006,08,13,12,59,19.20
2006,08,13,13,00,19.20
2006,08,13,13,01,19.30
2006,08,13,13,02,19.40
2006,08,13,13,03,19.50
2006,08,13,13,04,19.60
2006,08,13,13,05,19.70
2006,08,13,13,06,19.80
2006,08,13,13,07,19.80
2006,08,13,13,08,19.90
2006,08,13,13,09,19.90
2006,08,13,13,10,20.00
2006,08,13,13,11,20.10
2006,08,13,13,12,20.10
2006,08,13,13,13,20.10
2006,08,13,13,14,20.10
2006,08,13,13,15,20.10
2006,08,13,13,16,20.20
2006,08,13,13,17,20.20
2006,08,13,13,18,20.20
2006,08,13,13,19,20.10
2006,08,13,13,20,20.10
2006,08,13,13,21,20.00
2006,08,13,13,22,19.90
2006,08,13,13,23,19.90
2006,08,13,13,24,19.90
2006,08,13,13,25,19.90
2006,08,13,13,26,19.90
2006,08,13,13,27,19.90
2006,08,13,13,28,19.90
2006,08,13,13,29,20.00
2006,08,13,13,30,20.10
2006,08,13,13,31,20.10
2006,08,13,13,32,20.20
2006,08,13,13,33,20.20
2006,08,13,13,34,20.10
2006,08,13,13,35,20.20
2006,08,13,13,36,20.10
2006,08,13,13,37,20.10
2006,08,13,13,38,20.10
2006,08,13,13,39,19.90
2006,08,13,13,40,19.90
2006,08,13,13,41,20.10
2006,08,13,13,42,20.20
2006,08,13,13,43,20.20
2006,08,13,13,44,20.20
2006,08,13,13,45,20.20
2006,08,13,13,46,20.20
2006,08,13,13,47,20.30
2006,08,13,13,48,20.40
2006,08,13,13,49,20.50
2006,08,13,13,50,20.50
2006,08,13,13,51,20.50
2006,08,13,13,52,20.50
2006,08,13,13,53,20.60
2006,08,13,13,54,20.70
2006,08,13,13,55,20.80
2006,08,13,13,56,20.80
2006,08,13,13,57,20.90
2006,08,13,13,58,21.00
2006,08,13,13,59,21.10
2006,08,13,14,00,21.20
2006,08,13,14,01,21.10
2006,08,13,14,02,21.00
2006,08,13,14,03,20.90
2006,08,13,14,04,20.90
2006,08,13,14,05,20.80
2006,08,13,14,06,20.70
2006,08,13,14,07,20.60
2006,08,13,14,08,20.60
2006,08,13,14,09,20.60
2006,08,13,14,10,20.60
2006,08,13,14,11,20.60
2006,08,13,14,12,20.70
2006,08,13,14,13,20.70
2006,08,13,14,14,20.70
2006,08,13,14,15,20.70
2006,08,13,14,16,20.70
2006,08,13,14,17,20.60
2006,08,13,14,18,20.50
2006,08,13,14,19,20.50
2006,08,13,14,20,20.40
2006,08,13,14,21,20.30
2006,08,13,14,22,20.30
2006,08,13,14,23,20.30
2006,08,13,14,24,20.30
2006,08,13,14,25,20.30
2006,08,13,14,26,20.30
2006,08,13,14,27,20.50
2006,08,13,14,28,20.50
2006,08,13,14,29,20.50
2006,08,13,14,30,20.60
2006,08,13,14,31,20.60
2006,08,13,14,32,20.60
2006,08,13,14,33,20.50
2006,08,13,14,34,20.50
2006,08,13,14,35,20.50
2006,08,13,14,36,20.50
2006,08,13,14,37,20.50
2006,08,13,14,38,20.50
2006,08,13,14,39,20.60
2006,08,13,14,40,20.60
2006,08,13,14,41,20.70
2006,08,13,14,42,20.70
2006,08,13,14,43,20.80
2006,08,13,14,44,20.80
2006,08,13,14,45,20.80
2006,08,13,14,46,20.80
2006,08,13,14,47,20.80
2006,08,13,14,48,20.80
2006,08,13,14,49,20.80
2006,08,13,14,50,20.90
2006,08,13,14,51,21.00
2006,08,13,14,52,21.00
2006,08,13,14,53,21.10
2006,08,13,14,54,21.30
2006,08,13,14,55,21.40
2006,08,13,14,56,21.60
2006,08,13,14,57,21.60
2006,08,13,14,58,21.70
2006,08,13,14,59,21.80
2006,08,13,15,00,21.80
2006,08,13,15,01,21.80
2006,08,13,15,02,21.80
2006,08,13,15,03,21.70
2006,08,13,15,04,21.60
2006,08,13,15,05,21.60
2006,08,13,15,06,21.60
2006,08,13,15,07,21.60
2006,08,13,15,08,21.50
2006,08,13,15,09,21.40
2006,08,13,15,10,21.40
2006,08,13,15,11,21.50
2006,08,13,15,12,21.60
2006,08,13,15,13,21.60
2006,08,13,15,14,21.60
2006,08,13,15,15,21.60
2006,08,13,15,16,21.60
2006,08,13,15,17,21.60
2006,08,13,15,18,21.60
2006,08,13,15,19,21.60
2006,08,13,15,20,21.50
2006,08,13,15,21,21.30
2006,08,13,15,22,21.20
2006,08,13,15,23,21.10
2006,08,13,15,24,21.20
2006,08,13,15,25,21.20
2006,08,13,15,26,21.30
2006,08,13,15,27,21.30
2006,08,13,15,28,21.40
2006,08,13,15,29,21.40
2006,08,13,15,30,21.40
2006,08,13,15,31,21.40
2006,08,13,15,32,21.50
2006,08,13,15,33,21.50
2006,08,13,15,34,21.60
2006,08,13,15,35,21.60
2006,08,13,15,36,21.70
2006,08,13,15,37,21.80
2006,08,13,15,38,21.80
2006,08,13,15,39,21.90
2006,08,13,15,40,21.90
2006,08,13,15,41,21.90
2006,08,13,15,42,21.90
2006,08,13,15,43,21.90
2006,08,13,15,44,21.80
2006,08,13,15,45,21.90
2006,08,13,15,46,22.00
2006,08,13,15,47,22.00
2006,08,13,15,48,22.10
2006,08,13,15,49,22.20
2006,08,13,15,50,22.30
2006,08,13,15,51,22.30
2006,08,13,15,52,22.30
2006,08,13,15,53,22.30
2006,08,13,15,54,22.20
2006,08,13,15,55,22.20
2006,08,13,15,56,22.20
2006,08,13,15,57,22.30
2006,08,13,15,58,22.30
2006,08,13,15,59,22.30
2006,08,13,16,00,22.30
2006,08,13,16,01,22.20
2006,08,13,16,02,22.10
2006,08,13,16,03,22.00
2006,08,13,16,04,22.00
2006,08,13,16,05,21.90
2006,08,13,16,06,21.80
2006,08,13,16,07,21.70
2006,08,13,16,08,21.80
2006,08,13,16,09,21.80
2006,08,13,16,10,21.90
2006,08,13,16,11,21.90
2006,08,13,16,12,21.90
2006,08,13,16,13,21.90
2006,08,13,16,14,21.90
2006,08,13,16,15,21.90
2006,08,13,16,16,22.00
2006,08,13,16,17,22.00
2006,08,13,16,18,22.00
2006,08,13,16,19,22.00
2006,08,13,16,20,22.00
2006,08,13,16,21,22.10
2006,08,13,16,22,22.20
2006,08,13,16,23,22.30
2006,08,13,16,24,22.40
2006,08,13,16,25,22.50
2006,08,13,16,26,22.50
2006,08,13,16,27,22.60
2006,08,13,16,28,22.60
2006,08,13,16,29,22.60
2006,08,13,16,30,22.60
2006,08,13,16,31,22.70
2006,08,13,16,32,22.60
2006,08,13,16,33,22.60
2006,08,13,16,34,22.50
2006,08,13,16,35,22.50
2006,08,13,16,36,22.50
2006,08,13,16,37,22.60
2006,08,13,16,38,22.60
2006,08,13,16,39,22.60
2006,08,13,16,40,22.60
2006,08,13,16,41,22.60
2006,08,13,16,42,22.60
2006,08,13,16,43,22.60
2006,08,13,16,44,22.60
2006,08,13,16,45,22.60
2006,08,13,16,46,22.70
2006,08,13,16,47,22.70
2006,08,13,16,48,22.80
2006,08,13,16,49,22.90
2006,08,13,16,50,22.90
2006,08,13,16,51,23.10
2006,08,13,16,52,23.10
2006,08,13,16,53,23.20
2006,08,13,16,54,23.10
2006,08,13,16,55,23.10
2006,08,13,16,56,23.10
2006,08,13,16,57,23.10
2006,08,13,16,58,23.10
2006,08,13,16,59,23.10
2006,08,13,17,00,23.10
2006,08,13,17,01,23.10
2006,08,13,17,02,23.20
2006,08,13,17,03,23.20
2006,08,13,17,04,23.10
2006,08,13,17,05,23.00
2006,08,13,17,06,22.90
2006,08,13,17,07,22.90
2006,08,13,17,08,22.90
2006,08,13,17,09,22.90
2006,08,13,17,10,22.90
2006,08,13,17,11,22.80
2006,08,13,17,12,22.80
2006,08,13,17,13,22.80
2006,08,13,17,14,22.80
2006,08,13,17,15,22.80
2006,08,13,17,16,22.80
2006,08,13,17,17,22.70
2006,08,13,17,18,22.70
2006,08,13,17,19,22.80